[[{"header":{"parameterUnit":"m.s-1","parameterCategory":1,"la1":30.2991,"la2":30.254,"lo1":-89.0895,"lo2":-89.0444,"dy":0.0017,"dx":0.0017,"nx":28,"ny":28,"refTime":"2023-08-23T03:00:00:Z","depth":0,"parameterNumber":2,"parameterNumberName":"U-component_of_WINDS"},"data":[0,0,0,0,0,0,0,0,0,0,0,0,0,0,0,0,0,0,0,0,0,0,0,0,0,0,0,0,0,0,0,0,0,0,0,0,0,0,0,0,0,0,0,0,0,0,0,0,0,0,0,0,0,0,0,0,0,0,-0.6482,-0.6482,0,-0.6459,-0.6458,-0.6458,-0.6431,-0.643,-0.643,-0.6429,-0.6404,-0.6403,-0.6403,0,0,0,0,0,0,0,0,0,0,0,0,0,-0.6502,-0.6501,-0.6482,-0.6482,-0.6481,-0.6459,-0.6458,-0.6458,-0.6431,-0.643,-0.643,-0.6429,-0.6404,-0.6403,-0.6403,0,0,0,0,0,0,0,0,0,0,0,0,0,-0.6487,-0.6501,-0.6482,-0.6465,-0.6463,-0.6459,-0.6458,-0.6458,-0.6431,-0.643,-0.643,-0.6429,-0.6404,-0.6403,-0.6403,-0.6413,0,0,-0.6402,-0.6401,0,0,0,0,0,0,0,0,-0.6488,-0.6486,-0.6468,-0.6466,-0.6464,-0.6447,-0.6456,-0.6443,-0.6431,-0.6443,-0.6429,-0.6429,-0.6418,-0.6417,-0.6414,-0.6411,-0.641,-0.6402,-0.6401,-0.6401,-0.6401,0,0,0,0,0,0,0,-0.6489,-0.6487,-0.6472,-0.6467,-0.6465,-0.6458,-0.6455,-0.6453,-0.6434,-0.6442,-0.644,-0.6438,-0.6417,-0.6414,-0.6413,-0.641,-0.6402,-0.6401,-0.6401,-0.6401,-0.6415,-0.6416,0,0,0,0,0,0,-0.6493,-0.6488,-0.6473,-0.6472,-0.6475,-0.6458,-0.6455,-0.6453,-0.6434,-0.6431,-0.6438,-0.6436,-0.6415,-0.6413,-0.6412,-0.6422,-0.6401,-0.6401,-0.64,-0.6414,-0.6415,-0.6416,0,0,0,0,0,0,-0.6493,-0.6492,-0.6474,-0.648,-0.6477,-0.6459,-0.6456,-0.6453,-0.645,-0.6432,-0.6428,-0.6438,-0.6415,-0.6412,-0.6413,-0.6421,-0.64,-0.64,-0.6414,-0.6415,-0.6416,-0.6443,0,0,0,0,0,0,-0.6494,-0.6492,-0.6496,-0.648,-0.6477,-0.6476,-0.6457,-0.6453,-0.6449,-0.6447,-0.6431,-0.6428,-0.6414,-0.6414,-0.6413,-0.642,-0.64,-0.6413,-0.6414,-0.6415,-0.6441,-0.6445,-0.6448,0,0,0,0,0,-0.6495,-0.6504,-0.6496,-0.6494,-0.6481,-0.6477,-0.6475,-0.6459,-0.645,-0.6453,-0.6442,-0.6428,-0.6421,-0.6414,-0.6412,-0.642,-0.6412,-0.6414,-0.6415,-0.644,-0.6444,-0.6448,0,0,0,0,0,0,-0.652,-0.6501,-0.6492,-0.6497,-0.6489,-0.6472,-0.6476,-0.6464,-0.6458,-0.6456,-0.6437,-0.6433,-0.6436,-0.6428,-0.6421,-0.6429,-0.6414,-0.6416,-0.6434,-0.6438,-0.6441,-0.6442,-0.6399,0,0,0,0,0,-0.6526,-0.6525,-0.6508,-0.6514,-0.651,-0.6494,-0.6491,-0.648,-0.6471,-0.6467,-0.6456,-0.6446,-0.6442,-0.6439,-0.6434,-0.644,-0.6436,-0.6445,-0.6448,-0.6451,-0.6452,-0.6455,-0.6458,-0.6421,-0.6421,-0.6421,0,0,-0.6539,-0.6528,-0.6528,-0.6519,-0.6511,-0.651,-0.6491,-0.649,-0.6489,-0.6467,-0.6467,-0.6458,-0.6447,-0.645,-0.6451,-0.6443,-0.6461,-0.6453,-0.6455,-0.6454,-0.6457,-0.646,-0.6463,-0.6422,-0.6422,-0.6421,0,0,-0.6561,-0.6553,-0.6557,-0.655,-0.6539,-0.6528,-0.6529,-0.6515,-0.6508,-0.6508,-0.6492,-0.649,-0.6483,-0.6475,-0.6471,-0.6492,-0.6479,-0.6491,-0.6507,-0.651,-0.6513,-0.6516,-0.6523,-0.6526,-0.6492,-0.6492,-0.6492,0,-0.6578,-0.6575,-0.656,-0.6561,-0.6557,-0.6538,-0.6541,-0.6535,-0.6523,-0.6521,-0.6513,-0.6504,-0.6495,-0.6496,-0.6502,-0.6499,-0.6499,-0.6492,-0.6514,-0.6517,-0.6519,-0.6526,-0.6529,-0.6493,-0.6493,-0.6493,-0.6493,0,-0.6597,-0.6595,-0.66,-0.6589,-0.6586,-0.6588,-0.6573,-0.6571,-0.6561,-0.6551,-0.6552,-0.6541,-0.6533,-0.6533,-0.6522,-0.6533,-0.6529,-0.6518,-0.6503,-0.6524,-0.653,-0.6533,-0.6495,-0.6495,-0.6495,-0.6494,0,0,-0.6633,-0.6615,-0.6617,-0.6612,-0.6599,-0.6598,-0.6599,-0.6593,-0.6592,-0.6585,-0.6585,-0.658,-0.657,-0.6565,-0.6554,-0.6557,-0.6574,-0.6545,-0.6545,-0.6551,-0.6586,-0.6594,-0.6598,-0.6566,-0.6567,-0.6567,-0.6587,0,-0.6653,-0.6654,-0.6641,-0.6646,-0.6645,-0.6628,-0.6629,-0.6621,-0.6612,-0.661,-0.66,-0.6597,-0.6584,-0.6581,-0.6583,-0.6572,-0.6581,-0.657,-0.6566,-0.6566,-0.6569,-0.6601,-0.6609,-0.6629,-0.6589,-0.659,-0.659,0,-0.6675,-0.667,-0.6676,-0.6663,-0.6662,-0.6664,-0.6657,-0.6655,-0.6646,-0.664,-0.6635,-0.6622,-0.6623,-0.6609,-0.661,-0.6603,-0.66,-0.6595,-0.6595,-0.6594,-0.6579,-0.66,-0.6635,-0.6638,-0.6594,-0.6594,-0.6593,0,-0.6702,-0.6696,-0.6699,-0.6695,-0.6681,-0.6682,-0.6676,-0.6667,-0.6664,-0.6658,-0.6656,-0.6651,-0.6647,-0.6643,-0.6629,-0.6621,-0.6631,-0.6617,-0.6626,-0.6626,-0.6628,-0.6628,-0.6663,-0.6627,-0.6627,-0.6627,-0.6627,0,-0.6725,-0.6729,-0.671,-0.6712,-0.6716,-0.6701,-0.6705,-0.6697,-0.6689,-0.6689,-0.6673,-0.6673,-0.6655,-0.6653,-0.6643,-0.6645,-0.6643,-0.6638,-0.6635,-0.6639,-0.664,-0.6637,-0.6635,-0.6628,-0.6628,-0.6628,-0.6628,0,-0.6754,-0.6742,-0.6744,-0.6731,-0.6728,-0.6731,-0.672,-0.672,-0.6711,-0.6711,-0.671,-0.6695,-0.6692,-0.6678,-0.6672,-0.6665,-0.667,-0.6665,-0.6674,-0.6672,-0.6681,-0.6681,-0.6715,-0.6719,-0.6681,-0.6682,-0.6682,0,-0.677,-0.6773,-0.676,-0.6759,-0.6754,-0.6753,-0.675,-0.6735,-0.6733,-0.6724,-0.6726,-0.6722,-0.6718,-0.6714,-0.6702,-0.6697,-0.6691,-0.6704,-0.669,-0.6695,-0.6691,-0.6691,-0.6692,-0.6706,-0.6707,-0.6707,-0.6707,0,-0.6799,-0.6793,-0.679,-0.6785,-0.6783,-0.6778,-0.6773,-0.6773,-0.6757,-0.6755,-0.6752,-0.6749,-0.6743,-0.6739,-0.6733,-0.6726,-0.6714,-0.6712,-0.6714,-0.6718,-0.6723,-0.672,-0.6681,-0.6711,-0.6711,-0.671,-0.671,-0.671,-0.6821,-0.6823,-0.6815,-0.6813,-0.6807,-0.6803,-0.6803,-0.6794,-0.6792,-0.6786,-0.6778,-0.6776,-0.6768,-0.6758,-0.6752,-0.6751,-0.6744,-0.6746,-0.6747,-0.6748,-0.675,-0.6724,-0.6749,-0.6749,-0.6749,-0.6749,-0.6749,0,-0.6849,-0.6844,-0.6841,-0.6835,-0.6833,-0.6823,-0.6816,-0.6816,-0.6815,-0.6808,-0.6805,-0.6802,-0.6798,-0.6787,-0.6782,-0.6783,-0.6778,-0.6782,-0.6782,-0.6781,-0.6756,-0.6755,-0.6787,-0.6787,-0.6787,-0.6787,-0.6787,-0.6787,-0.6864,-0.6867,-0.686,-0.686,-0.6854,-0.6853,-0.685,-0.6846,-0.6841,-0.6838,-0.6836,-0.6829,-0.682,-0.6815,-0.6811,-0.6808,-0.6807,-0.6814,-0.6809,-0.6786,-0.6782,-0.6779,-0.6778,-0.6814,-0.6814,-0.6833,-0.6833,-0.6833]},{"header":{"parameterUnit":"m.s-1","parameterCategory":1,"la1":30.2991,"la2":30.254,"lo1":-89.0895,"lo2":-89.0444,"dy":0.0017,"dx":0.0017,"nx":28,"ny":28,"refTime":"2023-08-23T03:00:00:Z","depth":0,"parameterNumber":3,"parameterNumberName":"V-component_of_WINDS"},"data":[0,0,0,0,0,0,0,0,0,0,0,0,0,0,0,0,0,0,0,0,0,0,0,0,0,0,0,0,0,0,0,0,0,0,0,0,0,0,0,0,0,0,0,0,0,0,0,0,0,0,0,0,0,0,0,0,0,0,1.6054,1.6053,0,1.5985,1.5985,1.5984,1.5935,1.5935,1.5934,1.5934,1.586,1.5859,1.5857,0,0,0,0,0,0,0,0,0,0,0,0,0,1.614,1.6139,1.6054,1.6053,1.6052,1.5985,1.5984,1.5984,1.5935,1.5935,1.5934,1.5934,1.5861,1.5859,1.5857,0,0,0,0,0,0,0,0,0,0,0,0,0,1.609,1.6138,1.6054,1.602,1.6017,1.5986,1.5984,1.5983,1.5935,1.5935,1.5934,1.5933,1.5861,1.5859,1.5856,1.5853,0,0,1.5849,1.5848,0,0,0,0,0,0,0,0,1.6093,1.6087,1.6026,1.6023,1.6018,1.5968,1.5988,1.5939,1.5935,1.5966,1.5934,1.5933,1.5896,1.5891,1.5879,1.5849,1.5846,1.5849,1.5847,1.5846,1.5846,0,0,0,0,0,0,0,1.6096,1.609,1.6027,1.6025,1.6021,1.6007,1.5999,1.5978,1.5935,1.5963,1.596,1.5952,1.5894,1.5882,1.5877,1.5845,1.5849,1.5847,1.5845,1.5844,1.5808,1.5809,0,0,0,0,0,0,1.6106,1.6093,1.6029,1.6025,1.6055,1.6006,1.5997,1.5985,1.5935,1.5927,1.5953,1.595,1.5886,1.588,1.5874,1.5867,1.5846,1.5844,1.5843,1.5808,1.5808,1.5809,0,0,0,0,0,0,1.6108,1.61,1.6032,1.6058,1.6048,1.6005,1.5991,1.5984,1.5971,1.5927,1.5919,1.5948,1.5885,1.5878,1.5859,1.5863,1.5843,1.5841,1.5807,1.5808,1.5809,1.5852,0,0,0,0,0,0,1.611,1.6102,1.6101,1.6058,1.6047,1.6019,1.5992,1.5983,1.5968,1.5964,1.5921,1.5913,1.5884,1.5863,1.5856,1.586,1.5839,1.5807,1.5808,1.5808,1.585,1.5854,1.5857,0,0,0,0,0,1.6114,1.6115,1.6101,1.6093,1.6045,1.6019,1.6012,1.598,1.5968,1.5967,1.5938,1.5915,1.5864,1.5861,1.5854,1.5856,1.5806,1.5807,1.5808,1.5848,1.5853,1.5857,0,0,0,0,0,0,1.6158,1.6109,1.6093,1.608,1.6054,1.6011,1.6008,1.5986,1.5962,1.596,1.5919,1.591,1.5895,1.5873,1.5871,1.585,1.5832,1.5832,1.5865,1.5869,1.5873,1.5878,1.5837,0,0,0,0,0,1.6167,1.6151,1.6108,1.6101,1.6089,1.6051,1.6038,1.6016,1.5986,1.5975,1.5945,1.5917,1.5894,1.588,1.5857,1.5846,1.5836,1.5844,1.5848,1.5851,1.5852,1.5843,1.5847,1.5813,1.5813,1.5813,0,0,1.6184,1.6155,1.6147,1.6109,1.6087,1.607,1.6042,1.6025,1.6012,1.5972,1.5953,1.593,1.5895,1.588,1.5872,1.5862,1.5859,1.5853,1.5856,1.5854,1.5845,1.5848,1.5851,1.5813,1.5813,1.5813,0,0,1.6207,1.6184,1.6175,1.6153,1.6119,1.6094,1.6092,1.6051,1.6035,1.6015,1.5984,1.5967,1.593,1.5906,1.589,1.5903,1.5881,1.5897,1.5917,1.591,1.5912,1.5914,1.5919,1.5921,1.5897,1.5897,1.5897,0,1.6232,1.6207,1.6173,1.6159,1.6143,1.6107,1.6097,1.6077,1.6037,1.6026,1.6016,1.5967,1.5942,1.592,1.5924,1.5912,1.5907,1.5902,1.5915,1.5917,1.5918,1.5922,1.5924,1.5899,1.5899,1.5899,1.5899,0,1.624,1.6223,1.622,1.6183,1.6167,1.6155,1.6119,1.6106,1.6084,1.6059,1.6039,1.6007,1.5977,1.597,1.5948,1.5945,1.594,1.5923,1.5904,1.5924,1.5927,1.5928,1.5902,1.5902,1.5901,1.5901,0,0,1.6289,1.6234,1.6234,1.6217,1.6176,1.6162,1.6148,1.6119,1.6109,1.6082,1.6069,1.6038,1.6021,1.6002,1.5978,1.5971,1.5984,1.5954,1.5953,1.5961,1.5978,1.5991,1.5994,1.5968,1.5968,1.5969,1.5981,0,1.6306,1.628,1.6249,1.6234,1.6217,1.6182,1.617,1.6143,1.6119,1.6101,1.6074,1.6053,1.6033,1.6021,1.6013,1.5984,1.5987,1.5983,1.5955,1.5954,1.5965,1.5995,1.601,1.6023,1.5982,1.5982,1.5982,0,1.6322,1.6299,1.6282,1.6243,1.6235,1.6224,1.6195,1.6178,1.6147,1.613,1.6109,1.6083,1.6065,1.6048,1.6023,1.6021,1.6007,1.5991,1.5991,1.5987,1.597,1.5992,1.6026,1.6028,1.5984,1.5983,1.5983,0,1.636,1.6324,1.6309,1.6295,1.6249,1.6243,1.6223,1.6191,1.6176,1.615,1.6139,1.6111,1.6096,1.6075,1.6041,1.6032,1.6019,1.5999,1.6004,1.6005,1.6003,1.6003,1.6035,1.5994,1.5994,1.5994,1.5994,0,1.6382,1.6373,1.6325,1.6316,1.6305,1.6269,1.6258,1.6235,1.6207,1.6192,1.6159,1.6145,1.6102,1.6082,1.6056,1.6039,1.6032,1.6017,1.601,1.602,1.6022,1.6011,1.6009,1.5994,1.5994,1.5994,1.5994,0,1.6423,1.639,1.6372,1.633,1.6319,1.6313,1.6276,1.6265,1.624,1.6221,1.6214,1.6174,1.6149,1.6114,1.6078,1.606,1.6047,1.6036,1.6058,1.6054,1.606,1.606,1.6086,1.6087,1.6046,1.6046,1.6047,0,1.6439,1.6432,1.6389,1.6377,1.6359,1.634,1.6325,1.6288,1.6273,1.6237,1.623,1.6203,1.618,1.6143,1.6109,1.6081,1.6069,1.608,1.6065,1.6075,1.6069,1.607,1.6069,1.6084,1.6085,1.6085,1.6085,0,1.6472,1.6456,1.6435,1.6409,1.6392,1.6369,1.6345,1.6336,1.6294,1.6279,1.6254,1.6236,1.62,1.6174,1.6142,1.612,1.6096,1.6091,1.609,1.61,1.6114,1.6107,1.6068,1.609,1.609,1.6089,1.6089,1.6089,1.65,1.6492,1.6461,1.6439,1.6417,1.6395,1.6383,1.6356,1.6335,1.6304,1.6283,1.6259,1.6227,1.6182,1.6161,1.6141,1.6131,1.613,1.613,1.613,1.6134,1.6117,1.6135,1.6135,1.6135,1.6134,1.6134,0,1.6531,1.651,1.649,1.6457,1.644,1.6419,1.6391,1.6377,1.6357,1.633,1.6308,1.6279,1.6253,1.6218,1.6189,1.618,1.6168,1.6173,1.6174,1.6169,1.6145,1.6148,1.6184,1.6184,1.6184,1.6184,1.6184,1.6184,1.6545,1.653,1.6511,1.6484,1.6462,1.6439,1.6425,1.6404,1.6382,1.6352,1.6331,1.6308,1.6277,1.6245,1.622,1.621,1.6201,1.6211,1.6197,1.6175,1.6171,1.6167,1.617,1.6209,1.6209,1.6223,1.6223,1.6223]}]]